Location: Caltech
(34.1382°N, 118.1253°W)
Time: 19:10:21
(UTC-07:00)

Cosmos 1833 Rocket - Visible Passes

Search period start: 30 August 2016 00:00
Search period end: 09 September 2016 00:00
Orbit: 833 x 840 km, 71.0° (Epoch: 30 August)

Date Brightness Start Highest point End Pass type
(mag) Time Alt. Az. Time Alt. Az. Time Alt. Az.
30 Aug 3.4 05:29:32 10° S 05:34:59 56° ESE 05:40:28 10° NNE visible
31 Aug 3.5 05:12:57 10° S 05:18:21 51° ESE 05:23:45 10° NNE visible
01 Sep 3.7 04:56:23 10° S 05:01:42 46° ESE 05:07:01 10° NE visible
02 Sep 3.8 04:39:49 10° S 04:45:02 42° ESE 04:50:17 10° NE visible
03 Sep 3.9 04:24:22 16° SSE 04:28:24 38° ESE 04:33:32 10° NE visible
04 Sep 4.0 04:09:00 22° SSE 04:11:45 34° ESE 04:16:47 10° NE visible
04 Sep 3.7 05:50:57 10° WSW 05:55:40 27° WNW 06:00:24 10° N visible
05 Sep 4.1 03:53:31 27° SE 03:55:07 31° ESE 04:00:00 10° NE visible
05 Sep 3.6 05:35:17 15° WSW 05:38:57 30° WNW 05:43:50 10° N visible
06 Sep 4.2 03:37:58 28° ESE 03:38:30 29° ESE 03:43:13 10° NE visible
06 Sep 3.5 05:19:43 22° WSW 05:22:15 32° WNW 05:27:15 10° N visible
07 Sep 4.4 03:22:19 26° E 03:22:19 26° E 03:26:25 10° NE visible
07 Sep 3.4 05:04:03 30° W 05:05:33 35° WNW 05:10:40 10° N visible
08 Sep 4.7 03:06:36 22° E 03:06:36 22° E 03:09:35 10° NE visible
08 Sep 3.2 04:48:20 37° WNW 04:48:50 38° WNW 04:54:04 10° N visible
